Time,TemperatureF,DewpointF,PressureIn,WindDirection,WindDirectionDegrees,WindSpeedMPH,WindSpeedGustMPH,Humidity,HourlyPrecipIn,Conditions,Clouds,dailyrainin,SoftwareType,DateUTC
2013-05-27 00:00:00,75.6,64.3,30.13,ESE,113,1.1,2.5,68,0.00,,,0.00,WUHU216HW,2013-05-27 04:00:00,
2013-05-27 00:01:00,75.6,64.3,30.13,ESE,113,1.1,2.5,68,0.00,,,0.00,WUHU216HW,2013-05-27 04:01:00,
2013-05-27 00:03:00,75.6,64.3,30.13,NE,45,0.4,1.8,68,0.00,,,0.00,WUHU216HW,2013-05-27 04:03:00,
2013-05-27 00:08:00,75.4,64.1,30.13,NE,45,2.5,2.5,68,0.00,,,0.00,WUHU216HW,2013-05-27 04:08:00,
2013-05-27 00:13:00,75.2,63.9,30.13,ENE,68,1.8,2.7,68,0.00,,,0.00,WUHU216HW,2013-05-27 04:13:00,
2013-05-27 00:18:00,75.2,64.4,30.13,NE,45,0.4,2.7,69,0.00,,,0.00,WUHU216HW,2013-05-27 04:18:00,
2013-05-27 00:23:00,74.9,64.1,30.14,ESE,113,0.4,3.6,69,0.00,,,0.00,WUHU216HW,2013-05-27 04:23:00,
2013-05-27 00:29:00,74.9,64.1,30.13,NNE,23,0.2,3.6,69,0.00,,,0.00,WUHU216HW,2013-05-27 04:29:00,
2013-05-27 00:31:00,74.9,64.4,30.13,ENE,68,1.1,1.1,70,0.00,,,0.00,WUHU216HW,2013-05-27 04:31:00,
2013-05-27 00:34:00,74.9,64.4,30.13,ENE,68,1.1,3.6,70,0.00,,,0.00,WUHU216HW,2013-05-27 04:34:00,
2013-05-27 00:39:00,74.9,64.4,30.13,ENE,68,1.1,3.6,70,0.00,,,0.00,WUHU216HW,2013-05-27 04:39:00,
2013-05-27 01:00:00,74.3,64.4,30.13,ESE,113,2.0,2.0,71,0.00,,,0.00,WUHU216HW,2013-05-27 05:00:00,
2013-05-27 01:05:00,74.5,64.5,30.12,NE,45,0.9,2.0,71,0.00,,,0.00,WUHU216HW,2013-05-27 05:05:00,
2013-05-27 01:10:00,74.3,64.4,30.12,East,90,1.1,2.9,71,0.00,,,0.00,WUHU216HW,2013-05-27 05:10:00,
2013-05-27 01:16:00,74.3,64.4,30.12,ESE,113,1.1,2.9,71,0.00,,,0.00,WUHU216HW,2013-05-27 05:16:00,
2013-05-27 01:21:00,74.3,64.4,30.12,NNE,23,1.3,2.7,71,0.00,,,0.00,WUHU216HW,2013-05-27 05:21:00,
2013-05-27 01:26:00,74.3,64.4,30.12,ENE,68,1.8,3.6,71,0.00,,,0.00,WUHU216HW,2013-05-27 05:26:00,
2013-05-27 01:31:00,74.2,64.2,30.11,East,90,2.9,3.6,71,0.00,,,0.00,WUHU216HW,2013-05-27 05:31:00,
2013-05-27 01:36:00,74.2,64.2,30.11,ESE,113,1.6,3.6,71,0.00,,,0.00,WUHU216HW,2013-05-27 05:36:00,
2013-05-27 01:41:00,74.2,64.6,30.12,NNE,23,0.0,3.6,72,0.00,,,0.00,WUHU216HW,2013-05-27 05:41:00,
2013-05-27 01:46:00,74.0,64.5,30.11,East,90,2.7,2.7,72,0.00,,,0.00,WUHU216HW,2013-05-27 05:46:00,
2013-05-27 01:51:00,73.8,64.3,30.11,ENE,68,0.9,2.7,72,0.00,,,0.00,WUHU216HW,2013-05-27 05:51:00,
2013-05-27 01:57:00,73.8,64.3,30.11,ESE,113,2.0,2.9,72,0.00,,,0.00,WUHU216HW,2013-05-27 05:57:00,
2013-05-27 02:02:00,73.8,64.3,30.11,East,90,1.6,2.9,72,0.00,,,0.00,WUHU216HW,2013-05-27 06:02:00,
2013-05-27 02:07:00,73.8,64.3,30.11,East,90,1.1,2.5,72,0.00,,,0.00,WUHU216HW,2013-05-27 06:07:00,
2013-05-27 02:12:00,73.8,64.3,30.11,ESE,113,0.9,3.1,72,0.00,,,0.00,WUHU216HW,2013-05-27 06:12:00,
2013-05-27 02:17:00,73.8,64.3,30.11,ENE,68,4.0,4.0,72,0.00,,,0.00,WUHU216HW,2013-05-27 06:17:00,
2013-05-27 02:22:00,73.8,64.3,30.11,North,0,1.8,4.0,72,0.00,,,0.00,WUHU216HW,2013-05-27 06:22:00,
2013-05-27 02:27:00,73.8,64.3,30.10,ESE,113,1.1,2.9,72,0.00,,,0.00,WUHU216HW,2013-05-27 06:27:00,
2013-05-27 02:32:00,73.8,64.6,30.10,ESE,113,0.9,2.9,73,0.00,,,0.00,WUHU216HW,2013-05-27 06:32:00,
2013-05-27 02:37:00,73.6,64.4,30.09,North,0,2.0,2.0,73,0.00,,,0.00,WUHU216HW,2013-05-27 06:37:00,
2013-05-27 02:42:00,73.4,63.9,30.10,NNE,23,0.0,2.0,72,0.00,,,0.00,WUHU216HW,2013-05-27 06:42:00,
2013-05-27 02:48:00,73.4,64.4,30.10,North,0,1.8,3.1,73,0.00,,,0.00,WUHU216HW,2013-05-27 06:48:00,
2013-05-27 02:53:00,73.3,64.2,30.09,NNE,23,1.1,3.1,73,0.00,,,0.00,WUHU216HW,2013-05-27 06:53:00,
2013-05-27 02:58:00,73.3,64.2,30.09,ESE,113,3.4,3.4,73,0.00,,,0.00,WUHU216HW,2013-05-27 06:58:00,
2013-05-27 03:03:00,73.1,64.4,30.09,SE,135,0.7,3.4,74,0.00,,,0.00,WUHU216HW,2013-05-27 07:03:00,
2013-05-27 03:08:00,72.9,64.2,30.09,NE,45,2.0,4.0,74,0.00,,,0.00,WUHU216HW,2013-05-27 07:08:00,
2013-05-27 03:13:00,72.9,64.2,30.09,NNE,23,0.9,4.0,74,0.00,,,0.00,WUHU216HW,2013-05-27 07:13:00,
2013-05-27 03:18:00,72.7,64.0,30.09,NNE,23,0.9,2.5,74,0.00,,,0.00,WUHU216HW,2013-05-27 07:18:00,
2013-05-27 03:23:00,72.7,64.0,30.09,NNE,23,1.3,2.9,74,0.00,,,0.00,WUHU216HW,2013-05-27 07:23:00,
2013-05-27 03:29:00,72.7,64.4,30.09,ENE,68,2.0,2.9,75,0.00,,,0.00,WUHU216HW,2013-05-27 07:29:00,
2013-05-27 03:34:00,72.5,64.2,30.09,NE,45,0.9,2.9,75,0.00,,,0.00,WUHU216HW,2013-05-27 07:34:00,
2013-05-27 03:39:00,72.5,64.2,30.09,North,0,1.1,2.9,75,0.00,,,0.00,WUHU216HW,2013-05-27 07:39:00,
2013-05-27 03:44:00,72.4,64.0,30.09,NNE,23,1.3,1.6,75,0.00,,,0.00,WUHU216HW,2013-05-27 07:44:00,
2013-05-27 03:49:00,72.4,64.0,30.09,NE,45,0.2,2.0,75,0.00,,,0.00,WUHU216HW,2013-05-27 07:49:00,
2013-05-27 03:54:00,72.5,64.2,30.08,ENE,68,1.1,2.0,75,0.00,,,0.00,WUHU216HW,2013-05-27 07:54:00,
2013-05-27 03:59:00,72.5,64.2,30.08,NW,315,0.9,2.9,75,0.00,,,0.00,WUHU216HW,2013-05-27 07:59:00,
2013-05-27 04:04:00,72.4,64.0,30.08,SE,135,1.6,2.9,75,0.00,,,0.00,WUHU216HW,2013-05-27 08:04:00,
2013-05-27 04:10:00,72.4,64.0,30.08,NE,45,0.4,1.8,75,0.00,,,0.00,WUHU216HW,2013-05-27 08:10:00,
2013-05-27 04:15:00,72.4,64.0,30.08,NNE,23,1.1,2.5,75,0.00,,,0.00,WUHU216HW,2013-05-27 08:15:00,
2013-05-27 04:20:00,72.2,63.5,30.08,NE,45,2.7,2.7,74,0.00,,,0.00,WUHU216HW,2013-05-27 08:20:00,
2013-05-27 04:25:00,72.2,63.5,30.08,NNE,23,1.1,2.7,74,0.00,,,0.00,WUHU216HW,2013-05-27 08:25:00,
2013-05-27 04:30:00,72.2,63.5,30.08,ENE,68,1.1,2.5,74,0.00,,,0.00,WUHU216HW,2013-05-27 08:30:00,
2013-05-27 04:35:00,72.0,63.3,30.08,NNE,23,1.8,2.9,74,0.00,,,0.00,WUHU216HW,2013-05-27 08:35:00,
2013-05-27 04:40:00,71.8,63.5,30.08,NE,45,2.2,2.9,75,0.00,,,0.00,WUHU216HW,2013-05-27 08:40:00,
2013-05-27 04:45:00,72.0,63.6,30.08,NE,45,2.2,2.2,75,0.00,,,0.00,WUHU216HW,2013-05-27 08:45:00,
2013-05-27 04:50:00,71.8,63.5,30.08,NNE,23,1.3,2.7,75,0.00,,,0.00,WUHU216HW,2013-05-27 08:50:00,
2013-05-27 04:55:00,71.8,63.5,30.08,NE,45,1.8,2.7,75,0.00,,,0.00,WUHU216HW,2013-05-27 08:55:00,
2013-05-27 05:01:00,71.6,63.3,30.08,NE,45,2.5,2.5,75,0.00,,,0.00,WUHU216HW,2013-05-27 09:01:00,
2013-05-27 05:06:00,71.6,63.3,30.08,North,0,1.1,2.5,75,0.00,,,0.00,WUHU216HW,2013-05-27 09:06:00,
2013-05-27 05:11:00,71.5,63.5,30.08,NE,45,2.5,2.7,76,0.00,,,0.00,WUHU216HW,2013-05-27 09:11:00,
2013-05-27 05:16:00,71.3,63.3,30.08,NE,45,1.3,2.9,76,0.00,,,0.00,WUHU216HW,2013-05-27 09:16:00,
2013-05-27 05:21:00,71.3,63.3,30.08,ENE,68,1.8,2.9,76,0.00,,,0.00,WUHU216HW,2013-05-27 09:21:00,
2013-05-27 05:26:00,71.1,63.5,30.07,NNW,338,1.8,2.5,77,0.00,,,0.00,WUHU216HW,2013-05-27 09:26:00,
2013-05-27 05:31:00,70.9,63.3,30.07,NNE,23,2.5,2.5,77,0.00,,,0.00,WUHU216HW,2013-05-27 09:31:00,
2013-05-27 05:36:00,70.7,63.1,30.07,NNE,23,3.4,4.0,77,0.00,,,0.00,WUHU216HW,2013-05-27 09:36:00,
2013-05-27 05:42:00,70.6,62.9,30.07,NNE,23,2.9,4.0,77,0.00,,,0.00,WUHU216HW,2013-05-27 09:42:00,
2013-05-27 05:47:00,70.6,62.9,30.07,NE,45,1.3,3.4,77,0.00,,,0.00,WUHU216HW,2013-05-27 09:47:00,
2013-05-27 05:52:00,70.6,62.9,30.07,ESE,113,2.5,3.4,77,0.00,,,0.00,WUHU216HW,2013-05-27 09:52:00,
2013-05-27 05:57:00,70.4,62.7,30.07,ENE,68,1.3,2.7,77,0.00,,,0.00,WUHU216HW,2013-05-27 09:57:00,
2013-05-27 06:02:00,70.4,63.2,30.08,North,0,1.8,3.6,78,0.00,,,0.00,WUHU216HW,2013-05-27 10:02:00,
2013-05-27 06:07:00,70.2,63.0,30.08,NNE,23,2.0,3.6,78,0.00,,,0.00,WUHU216HW,2013-05-27 10:07:00,
2013-05-27 06:12:00,70.4,63.2,30.08,ENE,68,3.4,3.4,78,0.00,,,0.00,WUHU216HW,2013-05-27 10:12:00,
2013-05-27 06:17:00,70.4,63.2,30.08,NNE,23,1.8,3.4,78,0.00,,,0.00,WUHU216HW,2013-05-27 10:17:00,
2013-05-27 06:23:00,70.4,63.2,30.08,NE,45,3.8,3.8,78,0.00,,,0.00,WUHU216HW,2013-05-27 10:23:00,
2013-05-27 06:28:00,70.4,63.2,30.08,ENE,68,0.4,3.8,78,0.00,,,0.00,WUHU216HW,2013-05-27 10:28:00,
2013-05-27 06:33:00,70.2,63.4,30.07,NNE,23,2.0,4.0,79,0.00,,,0.00,WUHU216HW,2013-05-27 10:33:00,
2013-05-27 06:38:00,70.2,63.4,30.08,NNW,338,2.5,4.0,79,0.00,,,0.00,WUHU216HW,2013-05-27 10:38:00,
2013-05-27 06:43:00,70.2,63.4,30.08,NE,45,2.5,3.8,79,0.00,,,0.00,WUHU216HW,2013-05-27 10:43:00,
2013-05-27 06:48:00,70.2,63.4,30.08,NE,45,3.4,3.4,79,0.00,,,0.00,WUHU216HW,2013-05-27 10:48:00,
2013-05-27 06:53:00,70.0,63.2,30.08,NE,45,3.1,3.4,79,0.00,,,0.00,WUHU216HW,2013-05-27 10:53:00,
2013-05-27 06:58:00,70.0,63.2,30.09,NW,315,1.3,3.1,79,0.00,,,0.00,WUHU216HW,2013-05-27 10:58:00,
2013-05-27 07:03:00,70.2,63.4,30.09,NNE,23,1.8,3.4,79,0.00,,,0.00,WUHU216HW,2013-05-27 11:03:00,
2013-05-27 07:08:00,70.2,63.4,30.09,North,0,2.0,3.4,79,0.00,,,0.00,WUHU216HW,2013-05-27 11:08:00,
2013-05-27 07:13:00,70.4,63.6,30.09,ESE,113,2.2,3.4,79,0.00,,,0.00,WUHU216HW,2013-05-27 11:13:00,
2013-05-27 07:19:00,70.6,63.4,30.09,NE,45,1.6,3.4,78,0.00,,,0.00,WUHU216HW,2013-05-27 11:19:00,
2013-05-27 07:24:00,70.6,63.4,30.09,ENE,68,1.6,4.0,78,0.00,,,0.00,WUHU216HW,2013-05-27 11:24:00,
2013-05-27 07:29:00,70.7,63.6,30.09,North,0,3.8,4.0,78,0.00,,,0.00,WUHU216HW,2013-05-27 11:29:00,
2013-05-27 07:34:00,70.9,63.7,30.09,ESE,113,2.5,3.8,78,0.00,,,0.00,WUHU216HW,2013-05-27 11:34:00,
2013-05-27 07:39:00,71.1,63.9,30.09,NE,45,2.0,3.8,78,0.00,,,0.00,WUHU216HW,2013-05-27 11:39:00,
2013-05-27 07:44:00,71.5,64.3,30.09,East,90,1.1,3.8,78,0.00,,,0.00,WUHU216HW,2013-05-27 11:44:00,
2013-05-27 07:49:00,71.6,64.0,30.09,North,0,2.9,3.4,77,0.00,,,0.00,WUHU216HW,2013-05-27 11:49:00,
2013-05-27 07:54:00,71.8,64.2,30.10,ENE,68,0.9,3.4,77,0.00,,,0.00,WUHU216HW,2013-05-27 11:54:00,
2013-05-27 08:00:00,72.2,64.5,30.10,North,0,1.1,4.0,77,0.00,,,0.00,WUHU216HW,2013-05-27 12:00:00,
2013-05-27 08:05:00,72.5,64.9,30.09,NE,45,1.3,4.0,77,0.00,,,0.00,WUHU216HW,2013-05-27 12:05:00,
2013-05-27 08:10:00,72.7,65.1,30.09,NE,45,3.6,3.6,77,0.00,,,0.00,WUHU216HW,2013-05-27 12:10:00,
2013-05-27 08:15:00,73.1,65.1,30.09,North,0,2.9,3.6,76,0.00,,,0.00,WUHU216HW,2013-05-27 12:15:00,
2013-05-27 08:20:00,73.4,65.4,30.09,NE,45,4.0,4.0,76,0.00,,,0.00,WUHU216HW,2013-05-27 12:20:00,
2013-05-27 08:25:00,73.4,65.1,30.10,NNE,23,1.8,4.0,75,0.00,,,0.00,WUHU216HW,2013-05-27 12:25:00,
2013-05-27 08:30:00,73.8,65.4,30.10,NNE,23,1.8,2.5,75,0.00,,,0.00,WUHU216HW,2013-05-27 12:30:00,
2013-05-27 08:33:00,74.0,65.6,30.10,ENE,68,3.4,3.4,75,0.00,,,0.00,WUHU216HW,2013-05-27 12:33:00,
2013-05-27 08:35:00,74.0,65.6,30.10,ENE,68,3.4,3.6,75,0.00,,,0.00,WUHU216HW,2013-05-27 12:35:00,
2013-05-27 08:41:00,74.0,65.6,30.10,ENE,68,3.4,3.6,75,0.00,,,0.00,WUHU216HW,2013-05-27 12:41:00,
2013-05-27 09:00:00,74.2,65.8,30.10,ENE,68,4.3,4.3,75,0.00,,,0.00,WUHU216HW,2013-05-27 13:00:00,
2013-05-27 09:05:00,74.2,65.8,30.10,ESE,113,4.5,4.5,75,0.00,,,0.00,WUHU216HW,2013-05-27 13:05:00,
2013-05-27 09:10:00,74.2,65.8,30.10,NNW,338,2.5,4.5,75,0.00,,,0.00,WUHU216HW,2013-05-27 13:10:00,
2013-05-27 09:16:00,74.5,66.1,30.09,NE,45,3.1,4.7,75,0.00,,,0.00,WUHU216HW,2013-05-27 13:16:00,
2013-05-27 09:21:00,74.9,66.4,30.09,ESE,113,0.9,4.7,75,0.00,,,0.00,WUHU216HW,2013-05-27 13:21:00,
2013-05-27 09:26:00,75.4,67.0,30.09,North,0,1.8,3.1,75,0.00,,,0.00,WUHU216HW,2013-05-27 13:26:00,
2013-05-27 09:31:00,76.0,67.1,30.09,NNW,338,0.9,5.6,74,0.00,,,0.00,WUHU216HW,2013-05-27 13:31:00,
2013-05-27 09:36:00,76.3,67.4,30.09,East,90,2.5,5.6,74,0.00,,,0.00,WUHU216HW,2013-05-27 13:36:00,
2013-05-27 09:41:00,76.7,67.4,30.09,ENE,68,2.5,4.7,73,0.00,,,0.00,WUHU216HW,2013-05-27 13:41:00,
2013-05-27 09:46:00,77.0,67.8,30.09,ESE,113,2.7,4.7,73,0.00,,,0.00,WUHU216HW,2013-05-27 13:46:00,
2013-05-27 09:52:00,77.4,68.0,30.09,North,0,3.8,4.7,73,0.00,,,0.00,WUHU216HW,2013-05-27 13:52:00,
2013-05-27 09:57:00,78.1,68.3,30.09,ESE,113,3.4,5.8,72,0.00,,,0.00,WUHU216HW,2013-05-27 13:57:00,
2013-05-27 10:02:00,78.8,68.6,30.09,ESE,113,1.3,5.8,71,0.00,,,0.00,WUHU216HW,2013-05-27 14:02:00,
2013-05-27 10:08:00,79.2,68.9,30.09,North,0,4.0,5.6,71,0.00,,,0.00,WUHU216HW,2013-05-27 14:08:00,
2013-05-27 10:13:00,79.7,69.5,30.09,NNE,23,4.5,7.6,71,0.00,,,0.00,WUHU216HW,2013-05-27 14:13:00,
2013-05-27 10:18:00,80.3,69.7,30.09,ENE,68,5.1,7.6,70,0.00,,,0.00,WUHU216HW,2013-05-27 14:18:00,
2013-05-27 10:24:00,80.5,69.4,30.09,East,90,3.8,5.6,69,0.00,,,0.00,WUHU216HW,2013-05-27 14:24:00,
2013-05-27 10:29:00,80.8,69.8,30.09,East,90,2.9,5.6,69,0.00,,,0.00,WUHU216HW,2013-05-27 14:29:00,
2013-05-27 10:34:00,81.5,70.4,30.09,North,0,2.2,7.2,69,0.00,,,0.00,WUHU216HW,2013-05-27 14:34:00,
2013-05-27 10:39:00,81.5,69.9,30.09,ESE,113,1.1,7.6,68,0.00,,,0.00,WUHU216HW,2013-05-27 14:39:00,
2013-05-27 10:44:00,81.4,69.8,30.09,North,0,3.4,7.6,68,0.00,,,0.00,WUHU216HW,2013-05-27 14:44:00,
2013-05-27 10:49:00,81.4,70.2,30.09,ESE,113,5.1,6.9,69,0.00,,,0.00,WUHU216HW,2013-05-27 14:49:00,
2013-05-27 10:54:00,81.9,69.9,30.09,ESE,113,9.2,9.2,67,0.00,,,0.00,WUHU216HW,2013-05-27 14:54:00,
2013-05-27 10:59:00,81.9,70.3,30.09,NE,45,3.1,9.2,68,0.00,,,0.00,WUHU216HW,2013-05-27 14:59:00,
2013-05-27 11:04:00,82.1,70.4,30.09,NE,45,1.6,4.7,68,0.00,,,0.00,WUHU216HW,2013-05-27 15:04:00,
2013-05-27 11:10:00,82.1,69.9,30.09,NNE,23,4.0,5.4,67,0.00,,,0.00,WUHU216HW,2013-05-27 15:10:00,
2013-05-27 11:15:00,82.3,71.0,30.09,ESE,113,2.9,7.2,69,0.00,,,0.00,WUHU216HW,2013-05-27 15:15:00,
2013-05-27 11:20:00,82.8,71.1,30.09,NE,45,2.7,8.3,68,0.00,,,0.00,WUHU216HW,2013-05-27 15:20:00,
2013-05-27 11:25:00,83.2,71.0,30.09,NNE,23,3.8,8.3,67,0.00,,,0.00,WUHU216HW,2013-05-27 15:25:00,
2013-05-27 11:30:00,83.2,71.5,30.09,East,90,2.7,6.3,68,0.00,,,0.00,WUHU216HW,2013-05-27 15:30:00,
2013-05-27 11:35:00,83.3,71.2,30.09,NE,45,2.5,9.6,67,0.00,,,0.00,WUHU216HW,2013-05-27 15:35:00,
2013-05-27 11:40:00,83.3,71.2,30.09,ESE,113,7.4,9.6,67,0.00,,,0.00,WUHU216HW,2013-05-27 15:40:00,
2013-05-27 11:45:00,83.2,71.0,30.09,East,90,2.0,7.4,67,0.00,,,0.00,WUHU216HW,2013-05-27 15:45:00,
2013-05-27 11:51:00,83.2,71.0,30.09,SSE,158,6.5,6.9,67,0.00,,,0.00,WUHU216HW,2013-05-27 15:51:00,
2013-05-27 11:56:00,83.2,71.0,30.09,ESE,113,4.9,6.9,67,0.00,,,0.00,WUHU216HW,2013-05-27 15:56:00,
2013-05-27 12:01:00,83.5,71.4,30.09,NNE,23,4.7,5.8,67,0.00,,,0.00,WUHU216HW,2013-05-27 16:01:00,
2013-05-27 12:06:00,83.5,71.4,30.09,ESE,113,3.8,7.6,67,0.00,,,0.00,WUHU216HW,2013-05-27 16:06:00,
2013-05-27 12:11:00,84.2,72.1,30.09,SE,135,5.6,7.6,67,0.00,,,0.00,WUHU216HW,2013-05-27 16:11:00,
2013-05-27 12:16:00,85.3,71.7,30.09,North,0,4.3,6.9,64,0.00,,,0.00,WUHU216HW,2013-05-27 16:16:00,
2013-05-27 12:21:00,85.5,72.4,30.09,SE,135,5.4,5.4,65,0.00,,,0.00,WUHU216HW,2013-05-27 16:21:00,
2013-05-27 12:26:00,85.9,72.3,30.09,ENE,68,3.1,5.4,64,0.00,,,0.00,WUHU216HW,2013-05-27 16:26:00,
2013-05-27 12:31:00,85.5,72.4,30.09,ENE,68,7.2,7.2,65,0.00,,,0.00,WUHU216HW,2013-05-27 16:31:00,
2013-05-27 12:36:00,85.3,72.2,30.09,NNE,23,2.9,7.2,65,0.00,,,0.00,WUHU216HW,2013-05-27 16:36:00,
2013-05-27 12:42:00,85.3,71.3,30.09,ENE,68,3.4,6.0,63,0.00,,,0.00,WUHU216HW,2013-05-27 16:42:00,
2013-05-27 12:46:00,85.1,71.6,30.09,ESE,113,5.8,6.0,64,0.00,,,0.00,WUHU216HW,2013-05-27 16:46:00,
2013-05-27 12:51:00,85.3,71.7,30.09,ENE,68,2.9,6.0,64,0.00,,,0.00,WUHU216HW,2013-05-27 16:51:00,
2013-05-27 12:57:00,85.3,71.7,30.08,ENE,68,3.4,4.7,64,0.00,,,0.00,WUHU216HW,2013-05-27 16:57:00,
2013-05-27 13:02:00,85.1,73.5,30.09,SE,135,0.9,4.7,68,0.02,,,0.01,WUHU216HW,2013-05-27 17:02:00,
2013-05-27 13:07:00,84.8,73.5,30.09,SE,135,0.7,4.3,69,0.02,,,0.02,WUHU216HW,2013-05-27 17:07:00,
2013-05-27 13:12:00,84.4,74.0,30.09,ESE,113,0.4,2.9,71,0.02,,,0.02,WUHU216HW,2013-05-27 17:12:00,
2013-05-27 13:17:00,84.2,73.8,30.08,East,90,3.1,4.5,71,0.02,,,0.02,WUHU216HW,2013-05-27 17:17:00,
2013-05-27 13:22:00,84.2,74.3,30.08,ENE,68,5.1,5.1,72,0.02,,,0.02,WUHU216HW,2013-05-27 17:22:00,
2013-05-27 13:27:00,83.7,73.7,30.08,NNE,23,2.5,5.1,72,0.02,,,0.02,WUHU216HW,2013-05-27 17:27:00,
2013-05-27 13:32:00,82.6,72.6,30.08,SSE,158,1.8,3.4,72,0.02,,,0.02,WUHU216HW,2013-05-27 17:32:00,
2013-05-27 13:38:00,82.1,73.0,30.09,NNW,338,1.3,2.9,74,0.02,,,0.02,WUHU216HW,2013-05-27 17:38:00,
2013-05-27 13:43:00,82.1,73.0,30.09,ENE,68,0.7,1.8,74,0.02,,,0.02,WUHU216HW,2013-05-27 17:43:00,
2013-05-27 13:48:00,82.3,73.2,30.08,NNW,338,0.9,1.8,74,0.02,,,0.02,WUHU216HW,2013-05-27 17:48:00,
2013-05-27 13:53:00,82.8,73.3,30.08,NE,45,1.6,2.2,73,0.02,,,0.02,WUHU216HW,2013-05-27 17:53:00,
2013-05-27 13:58:00,83.2,73.6,30.08,SSE,158,0.9,2.2,73,0.01,,,0.02,WUHU216HW,2013-05-27 17:58:00,
2013-05-27 13:59:00,83.3,73.8,30.08,SE,135,3.4,3.4,73,0.01,,,0.02,WUHU216HW,2013-05-27 17:59:00,
2013-05-27 14:03:00,83.3,73.8,30.08,SE,135,3.4,3.4,73,0.01,,,0.02,WUHU216HW,2013-05-27 18:03:00,
2013-05-27 14:08:00,83.3,73.8,30.08,SE,135,3.4,3.4,73,0.01,,,0.02,WUHU216HW,2013-05-27 18:08:00,
2013-05-27 14:30:00,79.4,71.6,30.07,NE,45,1.3,1.3,77,0.28,,,0.02,WUHU216HW,2013-05-27 18:30:00,
2013-05-27 14:35:00,79.0,71.6,30.06,North,0,0.4,1.3,78,0.28,,,0.30,WUHU216HW,2013-05-27 18:35:00,
2013-05-27 14:40:00,79.4,71.9,30.06,West,270,1.8,1.8,78,0.28,,,0.30,WUHU216HW,2013-05-27 18:40:00,
2013-05-27 14:46:00,80.3,72.8,30.06,WSW,248,0.4,1.8,78,0.28,,,0.30,WUHU216HW,2013-05-27 18:46:00,
2013-05-27 14:51:00,81.2,73.7,30.07,West,270,1.8,1.8,78,0.28,,,0.30,WUHU216HW,2013-05-27 18:51:00,
2013-05-27 14:56:00,81.9,74.8,30.06,West,270,2.5,2.5,79,0.28,,,0.30,WUHU216HW,2013-05-27 18:56:00,
2013-05-27 15:01:00,82.1,74.6,30.06,WNW,293,1.8,3.8,78,0.28,,,0.30,WUHU216HW,2013-05-27 19:01:00,
2013-05-27 15:06:00,82.4,74.5,30.05,NNW,338,0.7,3.8,77,0.20,,,0.30,WUHU216HW,2013-05-27 19:06:00,
2013-05-27 15:11:00,82.6,74.3,30.05,NW,315,2.5,2.5,76,0.06,,,0.30,WUHU216HW,2013-05-27 19:11:00,
2013-05-27 15:16:00,82.8,74.4,30.05,WNW,293,1.3,2.5,76,0.01,,,0.30,WUHU216HW,2013-05-27 19:16:00,
2013-05-27 15:21:00,83.5,75.2,30.05,North,0,0.4,2.0,76,0.00,,,0.30,WUHU216HW,2013-05-27 19:21:00,
2013-05-27 15:27:00,83.9,75.1,30.05,ENE,68,0.4,2.0,75,0.00,,,0.30,WUHU216HW,2013-05-27 19:27:00,
2013-05-27 15:32:00,83.9,75.1,30.05,NW,315,0.9,1.8,75,0.00,,,0.30,WUHU216HW,2013-05-27 19:32:00,
2013-05-27 15:37:00,83.5,74.4,30.05,NE,45,3.4,3.6,74,0.00,,,0.30,WUHU216HW,2013-05-27 19:37:00,
2013-05-27 15:42:00,83.3,74.6,30.05,NNW,338,3.4,3.6,75,0.00,,,0.30,WUHU216HW,2013-05-27 19:42:00,
2013-05-27 15:47:00,83.5,74.7,30.04,NNW,338,1.1,3.4,75,0.00,,,0.30,WUHU216HW,2013-05-27 19:47:00,
2013-05-27 15:52:00,83.7,74.9,30.04,North,0,1.1,2.9,75,0.00,,,0.30,WUHU216HW,2013-05-27 19:52:00,
2013-05-27 15:57:00,83.3,73.8,30.03,NE,45,1.8,2.9,73,0.00,,,0.30,WUHU216HW,2013-05-27 19:57:00,
2013-05-27 16:02:00,82.6,73.4,30.03,North,0,2.5,3.4,74,0.00,,,0.30,WUHU216HW,2013-05-27 20:02:00,
2013-05-27 16:07:00,82.4,73.3,30.03,ESE,113,1.6,4.3,74,0.00,,,0.30,WUHU216HW,2013-05-27 20:07:00,
2013-05-27 16:13:00,82.1,73.4,30.03,NNE,23,2.5,4.7,75,0.00,,,0.30,WUHU216HW,2013-05-27 20:13:00,
2013-05-27 16:18:00,81.5,72.8,30.03,North,0,1.3,4.7,75,0.02,,,0.31,WUHU216HW,2013-05-27 20:18:00,
2013-05-27 16:23:00,81.4,73.1,30.03,NNW,338,2.5,2.9,76,0.02,,,0.32,WUHU216HW,2013-05-27 20:23:00,
2013-05-27 16:28:00,81.0,73.2,30.03,NNE,23,1.3,2.7,77,0.02,,,0.32,WUHU216HW,2013-05-27 20:28:00,
2013-05-27 16:33:00,80.8,73.0,30.03,ESE,113,0.9,3.1,77,0.02,,,0.32,WUHU216HW,2013-05-27 20:33:00,
2013-05-27 16:38:00,80.8,73.4,30.03,NNE,23,1.8,3.1,78,0.02,,,0.32,WUHU216HW,2013-05-27 20:38:00,
2013-05-27 16:43:00,79.9,72.5,30.02,NNE,23,1.8,3.6,78,0.02,,,0.32,WUHU216HW,2013-05-27 20:43:00,
2013-05-27 16:48:00,79.7,72.3,30.02,ESE,113,1.6,3.6,78,0.02,,,0.32,WUHU216HW,2013-05-27 20:48:00,
2013-05-27 16:53:00,79.9,72.9,30.03,SE,135,4.0,4.0,79,0.03,,,0.32,WUHU216HW,2013-05-27 20:53:00,
2013-05-27 16:58:00,79.4,71.9,30.03,NNE,23,2.2,7.6,78,0.07,,,0.36,WUHU216HW,2013-05-27 20:58:00,
2013-05-27 17:03:00,78.8,71.8,30.03,ENE,68,0.2,7.6,79,0.14,,,0.44,WUHU216HW,2013-05-27 21:03:00,
2013-05-27 17:09:00,78.7,72.0,30.02,West,270,3.4,4.7,80,0.20,,,0.49,WUHU216HW,2013-05-27 21:09:00,
2013-05-27 17:14:00,78.7,72.0,30.02,NW,315,0.4,3.4,80,0.21,,,0.52,WUHU216HW,2013-05-27 21:14:00,
2013-05-27 17:19:00,78.8,72.5,30.02,North,0,1.1,1.8,81,0.21,,,0.53,WUHU216HW,2013-05-27 21:19:00,
2013-05-27 17:24:00,78.8,72.5,30.02,NNW,338,0.0,1.8,81,0.21,,,0.53,WUHU216HW,2013-05-27 21:24:00,
2013-05-27 17:29:00,78.8,72.2,30.02,SSW,203,0.9,1.6,80,0.22,,,0.54,WUHU216HW,2013-05-27 21:29:00,
2013-05-27 17:34:00,79.2,72.5,30.02,SSW,203,0.4,1.8,80,0.22,,,0.54,WUHU216HW,2013-05-27 21:34:00,
2013-05-27 17:39:00,79.2,72.5,30.03,SSW,203,0.9,2.2,80,0.22,,,0.54,WUHU216HW,2013-05-27 21:39:00,
2013-05-27 17:44:00,79.0,72.4,30.02,SSE,158,1.1,2.5,80,0.22,,,0.54,WUHU216HW,2013-05-27 21:44:00,
2013-05-27 17:49:00,79.2,72.5,30.02,SSW,203,0.2,2.5,80,0.22,,,0.54,WUHU216HW,2013-05-27 21:49:00,
2013-05-27 17:55:00,79.0,72.7,30.02,NNW,338,0.2,1.1,81,0.18,,,0.54,WUHU216HW,2013-05-27 21:55:00,
2013-05-27 18:00:00,78.8,72.5,30.01,ESE,113,0.0,0.9,81,0.16,,,0.54,WUHU216HW,2013-05-27 22:00:00,
2013-05-27 18:05:00,78.8,72.5,30.02,NNW,338,1.3,1.3,81,0.04,,,0.54,WUHU216HW,2013-05-27 22:05:00,
2013-05-27 18:10:00,78.8,72.5,30.01,WSW,248,0.0,1.3,81,0.02,,,0.54,WUHU216HW,2013-05-27 22:10:00,
2013-05-27 18:15:00,78.8,72.5,30.01,West,270,0.7,1.3,81,0.01,,,0.54,WUHU216HW,2013-05-27 22:15:00,
2013-05-27 18:20:00,78.8,72.5,30.01,West,270,0.0,0.9,81,0.01,,,0.54,WUHU216HW,2013-05-27 22:20:00,
2013-05-27 18:25:00,78.8,72.5,30.01,West,270,0.0,0.9,81,0.00,,,0.54,WUHU216HW,2013-05-27 22:25:00,
2013-05-27 18:30:00,78.8,72.9,30.01,South,180,0.2,0.9,82,0.00,,,0.54,WUHU216HW,2013-05-27 22:30:00,
2013-05-27 18:35:00,78.8,72.9,30.01,SSE,158,0.7,0.9,82,0.00,,,0.54,WUHU216HW,2013-05-27 22:35:00,
2013-05-27 18:41:00,78.8,72.9,30.01,South,180,0.0,0.7,82,0.00,,,0.54,WUHU216HW,2013-05-27 22:41:00,
2013-05-27 18:46:00,78.8,72.9,30.01,South,180,0.0,0.2,82,0.00,,,0.54,WUHU216HW,2013-05-27 22:46:00,
2013-05-27 18:51:00,79.0,73.1,30.01,SSE,158,0.0,0.7,82,0.00,,,0.54,WUHU216HW,2013-05-27 22:51:00,
2013-05-27 18:56:00,79.0,73.1,30.01,SSE,158,0.0,0.7,82,0.00,,,0.54,WUHU216HW,2013-05-27 22:56:00,
2013-05-27 19:01:00,79.0,73.1,30.01,SSE,158,0.2,0.4,82,0.00,,,0.54,WUHU216HW,2013-05-27 23:01:00,
2013-05-27 19:06:00,79.2,73.3,30.01,SSE,158,0.2,0.4,82,0.00,,,0.54,WUHU216HW,2013-05-27 23:06:00,
2013-05-27 19:11:00,79.2,73.3,30.01,SSE,158,0.0,0.4,82,0.00,,,0.54,WUHU216HW,2013-05-27 23:11:00,
2013-05-27 19:16:00,79.2,73.6,30.01,NW,315,0.2,0.9,83,0.00,,,0.54,WUHU216HW,2013-05-27 23:16:00,
2013-05-27 19:21:00,79.2,73.6,30.01,NW,315,0.0,0.9,83,0.00,,,0.54,WUHU216HW,2013-05-27 23:21:00,
2013-05-27 19:26:00,79.2,73.6,30.01,NW,315,0.0,0.2,83,0.00,,,0.54,WUHU216HW,2013-05-27 23:26:00,
2013-05-27 19:31:00,79.2,73.6,30.02,NW,315,0.0,0.0,83,0.00,,,0.54,WUHU216HW,2013-05-27 23:31:00,
2013-05-27 19:37:00,79.2,73.6,30.02,NNE,23,0.4,0.4,83,0.00,,,0.54,WUHU216HW,2013-05-27 23:37:00,
2013-05-27 19:42:00,79.2,74.0,30.02,ENE,68,0.4,1.3,84,0.00,,,0.54,WUHU216HW,2013-05-27 23:42:00,
2013-05-27 19:47:00,78.8,73.3,30.02,ESE,113,2.0,3.4,83,0.00,,,0.54,WUHU216HW,2013-05-27 23:47:00,
2013-05-27 19:52:00,78.8,73.3,30.02,ENE,68,4.0,4.0,83,0.00,,,0.54,WUHU216HW,2013-05-27 23:52:00,
2013-05-27 19:57:00,78.8,72.9,30.02,East,90,1.3,4.0,82,0.00,,,0.54,WUHU216HW,2013-05-27 23:57:00,
2013-05-27 20:02:00,78.7,72.7,30.02,ESE,113,1.8,3.4,82,0.00,,,0.54,WUHU216HW,2013-05-28 00:02:00,
2013-05-27 20:07:00,78.5,72.5,30.03,ENE,68,1.1,5.8,82,0.00,,,0.54,WUHU216HW,2013-05-28 00:07:00,
2013-05-27 20:12:00,78.3,72.0,30.03,NNE,23,1.8,5.8,81,0.00,,,0.54,WUHU216HW,2013-05-28 00:12:00,
2013-05-27 20:17:00,78.3,72.0,30.02,ESE,113,1.8,4.0,81,0.00,,,0.54,WUHU216HW,2013-05-28 00:17:00,
2013-05-27 20:23:00,78.3,72.0,30.02,East,90,1.1,2.9,81,0.00,,,0.54,WUHU216HW,2013-05-28 00:23:00,
2013-05-27 20:28:00,78.1,71.8,30.02,East,90,2.0,3.4,81,0.00,,,0.54,WUHU216HW,2013-05-28 00:28:00,
2013-05-27 20:33:00,77.9,71.3,30.02,SE,135,2.7,4.7,80,0.00,,,0.54,WUHU216HW,2013-05-28 00:33:00,
2013-05-27 20:38:00,77.9,71.3,30.02,ESE,113,3.8,8.1,80,0.00,,,0.54,WUHU216HW,2013-05-28 00:38:00,
2013-05-27 20:43:00,77.8,71.1,30.02,ESE,113,3.4,8.1,80,0.00,,,0.54,WUHU216HW,2013-05-28 00:43:00,
2013-05-27 20:48:00,77.8,71.1,30.02,ESE,113,2.9,7.4,80,0.00,,,0.54,WUHU216HW,2013-05-28 00:48:00,
2013-05-27 20:53:00,77.8,70.8,30.02,SE,135,3.4,7.4,79,0.00,,,0.54,WUHU216HW,2013-05-28 00:53:00,
2013-05-27 20:58:00,77.8,70.8,30.02,ENE,68,1.1,8.9,79,0.00,,,0.54,WUHU216HW,2013-05-28 00:58:00,
2013-05-27 21:04:00,77.8,70.8,30.02,ESE,113,5.1,8.9,79,0.00,,,0.54,WUHU216HW,2013-05-28 01:04:00,
2013-05-27 21:09:00,77.6,70.6,30.03,NE,45,1.8,5.1,79,0.00,,,0.54,WUHU216HW,2013-05-28 01:09:00,
2013-05-27 21:14:00,77.6,70.1,30.03,ESE,113,4.0,5.1,78,0.00,,,0.54,WUHU216HW,2013-05-28 01:14:00,
2013-05-27 21:19:00,77.6,70.6,30.03,NNE,23,1.1,5.1,79,0.00,,,0.54,WUHU216HW,2013-05-28 01:19:00,
2013-05-27 21:24:00,77.6,70.6,30.04,SE,135,1.1,2.9,79,0.00,,,0.54,WUHU216HW,2013-05-28 01:24:00,
2013-05-27 21:29:00,77.4,70.4,30.04,ESE,113,2.5,4.7,79,0.00,,,0.54,WUHU216HW,2013-05-28 01:29:00,
2013-05-27 21:34:00,77.4,70.4,30.04,ENE,68,1.8,4.7,79,0.00,,,0.54,WUHU216HW,2013-05-28 01:34:00,
2013-05-27 21:39:00,77.4,70.4,30.04,East,90,2.5,4.5,79,0.00,,,0.54,WUHU216HW,2013-05-28 01:39:00,
2013-05-27 21:45:00,77.4,70.4,30.05,NE,45,1.6,4.0,79,0.00,,,0.54,WUHU216HW,2013-05-28 01:45:00,
2013-05-27 21:50:00,77.4,70.4,30.05,ESE,113,1.3,4.0,79,0.00,,,0.54,WUHU216HW,2013-05-28 01:50:00,
2013-05-27 21:55:00,77.4,70.7,30.05,East,90,1.3,3.8,80,0.00,,,0.54,WUHU216HW,2013-05-28 01:55:00,
2013-05-27 22:00:00,77.2,70.6,30.05,NE,45,1.1,3.8,80,0.00,,,0.54,WUHU216HW,2013-05-28 02:00:00,
2013-05-27 22:05:00,77.2,70.6,30.06,East,90,2.0,3.4,80,0.00,,,0.54,WUHU216HW,2013-05-28 02:05:00,
2013-05-27 22:10:00,77.0,70.4,30.06,ESE,113,2.9,2.9,80,0.00,,,0.54,WUHU216HW,2013-05-28 02:10:00,
2013-05-27 22:15:00,77.0,70.4,30.06,NE,45,3.4,3.4,80,0.00,,,0.54,WUHU216HW,2013-05-28 02:15:00,
2013-05-27 22:20:00,76.9,70.2,30.07,East,90,0.9,3.4,80,0.00,,,0.54,WUHU216HW,2013-05-28 02:20:00,
2013-05-27 22:25:00,76.9,70.2,30.07,NE,45,2.7,6.9,80,0.00,,,0.54,WUHU216HW,2013-05-28 02:25:00,
2013-05-27 22:30:00,76.9,70.2,30.07,ESE,113,1.8,6.9,80,0.00,,,0.54,WUHU216HW,2013-05-28 02:30:00,
2013-05-27 22:35:00,76.9,70.6,30.07,SSE,158,2.0,6.3,81,0.00,,,0.54,WUHU216HW,2013-05-28 02:35:00,
2013-05-27 22:41:00,76.7,70.0,30.07,SE,135,3.4,4.7,80,0.00,,,0.54,WUHU216HW,2013-05-28 02:41:00,
2013-05-27 22:46:00,76.7,70.0,30.07,North,0,3.6,5.6,80,0.00,,,0.54,WUHU216HW,2013-05-28 02:46:00,
2013-05-27 22:51:00,76.7,70.0,30.07,ESE,113,3.4,5.6,80,0.00,,,0.54,WUHU216HW,2013-05-28 02:51:00,
2013-05-27 22:56:00,76.7,70.0,30.07,SSE,158,1.6,4.9,80,0.00,,,0.54,WUHU216HW,2013-05-28 02:56:00,
2013-05-27 23:01:00,76.5,70.3,30.08,ESE,113,1.6,4.0,81,0.00,,,0.54,WUHU216HW,2013-05-28 03:01:00,
2013-05-27 23:06:00,76.5,70.3,30.08,SE,135,1.3,4.3,81,0.00,,,0.54,WUHU216HW,2013-05-28 03:06:00,
2013-05-27 23:11:00,76.5,70.3,30.08,SE,135,2.2,6.5,81,0.00,,,0.54,WUHU216HW,2013-05-28 03:11:00,
2013-05-27 23:16:00,76.5,70.3,30.08,East,90,1.3,6.5,81,0.00,,,0.54,WUHU216HW,2013-05-28 03:16:00,
2013-05-27 23:22:00,76.3,70.1,30.08,ESE,113,2.5,4.0,81,0.00,,,0.54,WUHU216HW,2013-05-28 03:22:00,
2013-05-27 23:27:00,76.3,70.1,30.08,NNE,23,1.6,4.0,81,0.00,,,0.54,WUHU216HW,2013-05-28 03:27:00,
2013-05-27 23:32:00,76.3,70.1,30.08,ENE,68,2.7,3.4,81,0.00,,,0.54,WUHU216HW,2013-05-28 03:32:00,
2013-05-27 23:37:00,76.3,70.1,30.08,NE,45,1.1,3.1,81,0.00,,,0.54,WUHU216HW,2013-05-28 03:37:00,
2013-05-27 23:42:00,76.1,69.9,30.08,ESE,113,2.5,2.7,81,0.00,,,0.54,WUHU216HW,2013-05-28 03:42:00,
2013-05-27 23:47:00,76.1,69.9,30.08,ESE,113,1.1,3.6,81,0.00,,,0.54,WUHU216HW,2013-05-28 03:47:00,
2013-05-27 23:52:00,76.1,69.9,30.08,North,0,1.1,3.6,81,0.00,,,0.54,WUHU216HW,2013-05-28 03:52:00,
2013-05-27 23:57:00,76.0,69.8,30.08,North,0,2.7,3.1,81,0.00,,,0.54,WUHU216HW,2013-05-28 03:57:00,